SCP
0 0 0 0 0 0 0 0 0 0 0 0 0 0 0 0 0 0 0 0 0 0 0 0 0 0 0 0 0 0 0 0 0 0 0 0 0 0 0 0 0 0 0 0
0 0 0 0 0 0 0 0 0 0 0 0 0 0 0 0 0 0 0 0 0 0 0 0 0 0 0 0 0 0 0 0 0 0 0 0 0 0 0 0 0 0 0 0
0 0 0 0 0 0 0 0 0 0 0 0 0 0 0 0 0 0 0 0 0 0 0 0 0 0 0 0 0 0 0 0 0 0 0 0 0 0 0 0 0 0 0 0
0 0 0 0 0 0 0 0 0 0 0 0 0 0 0 0 0 0 0 0 0 0 0 0 0 0 0 0 0 0 0 0 0 0 0 0 0 0 0 0 0 0 0 0
0 0 0 0 0 0 0 0 0 0 0 0 0 0 0 0 0 0 0 0 0 0 0 0 0 0 0 0 0 0 0 0 0 0 0 0 0 0 0 0 0 0 0 0
0 0 0 0 0 0 0 0 0 0 0 0 0 0 0 0 0 0 0 0 0 0 0 0 0 0 0 0 0 0 0 0 0 0 0 0 0 0 0 0 0 0 0 0
0 0 0 0 0 0 0 0 0 0 0 0 0 0 0 0 0 0 0 0 0 0 0 0 0 0 0 0 0 0 0 0 0 0 0 0 0 0 0 0 0 0 0 0
0 0 0 0 0 0 0 0 0 0 0 0 0 0 0 0 0 0 0 0 0 0 0 0 0 0 0 0 0 0 0 0 0 0 0 0 0 0 0 0 0 0 0 0
0 0 0 0 0 0 0 0 0 0 0 0 0 0 0 0 0 0 0 0 0 0 0 0 0 0 0 0 0 0 0 0 0 0 0 0 0 0 0 0 0 0 0 0
0 0 0 0 0 0 0 0 0 0 0 0 0 0 0 0 0 0 0 0 0 0 0 0 0 0 0 0 0 0 0 0 0 0 0 0 0 0 0 0 0 0 0 0
0 0 0 0 0 0 0 0 0 0 0 0 0 0 0 0 0 0 0 0 0 0 0 0 0 0 0 0 0 0 0 0 0 0 0 0 0 0 0 0 0 0 0 0
0 0 0 0 0 0 0 0 0 0 0 0 0 0 0 0 0 0 0 0 0 0 0 0 0 0 0 0 0 0 0 0 0 0 0 0 0 0 0 0 0 0 0 0
0 0 0 0 0 0 0 0 0 0 0 0 0 0 0 0 0 0 0 0 0 0 0 0 0 0 0 0 0 0 0 0 0 0 0 0 0 0 0 0 0 0 0 0
0 0 0 0 0 0 0 0 0 0 0 0 0 0 0 0 0 0 0 0 0 0 0 0 0 0 0 0 0 0 0 0 0 0 0 0 0 0 0 0 0 0 0 0
0 0 0 0 0 0 0 0 0 0 0 0 0 0 0 0 0 0 0 0 0 0 0 0 0 0 0 0 0 0 0 0 0 0 0 0 0 0 0 0 0 0 0 0
0 0 0 0 0 0 0 0 0 0 0 0 0 0 0 0 0 0 0 0 0 0 0 0 0 0 0 0 0 0 0 0 0 0 0 0 0 0 0 0 0 0 0 0
0 0 0 0 0 0 0 0 0 0 0 0 0 0 0 0 0 0 0 0 0 0 0 0 0 0 0 0 0 0 0 0 0 0 0 0 0 0 0 0 0 0 0 0
0 0 0 0 0 0 0 0 0 0 0 0 0 0 0 0 0 0 0 0 0 0 0 0 0 0 0 0 0 0 0 0 0 0 0 0 0 0 0 0 0 0 0 0
0 0 0 0 0 0 0 0 0 0 0 0 0 0 0 0 0 0 0 0 0 0 0 0 0 0 0 0 0 0 0 0 0 0 0 0 0 0 0 0 0 0 0 0
0 0 0 0 0 0 0 0 0 0 0 0 0 0 0 0 0 0 0 0 0 0 0 0 0 0 0 0 0 0 0 0 0 0 0 0 0 0 0 0 0 0 0 0
0 0 0 0 0 0 0 0 0 0 0 0 0 0 0 0 0 0 0 0 0 0 0 0 0 0 0 0 0 0 0 0 0 0 0 0 0 0 0 0 0 0 0 0
0 0 0 0 0 0 0 0 0 0 0 0 0 0 0 0 0 0 0 0 0 0 0 0 0 0 0 0 0 0 0 0 0 0 0 0 0 0 0 0 0 0 0 0
0 0 0 0 0 0 0 0 0 0 0 0 0 0 0 0 0 0 0 0 0 0 0 0 0 0 0 0 0 0 0 0 0 0 0 0 0 0 0 0 0 0 0 0
0 0 0 0 0 0 0 0 0 0 0 0 0 0 0 0 0 0 0 0 0 0 0 0 0 0 0 0 0 0 0 0 0 0 0 0 0 0 0 0 0 0 0 0
0 0 0 0 0 0 0 0 0 0 0 0 0 0 0 0 0 0 0 0 0 0 0 0 0 0 0 0 0 0 0 0 0 0 0 0 0 0 0 0 0 0 0 0
0 0 0 0 0 0 0 0 0 0 0 0 0 0 0 0 0 0 0 0 0 0 0 0 0 0 0 0 0 0 0 0 0 0 0 0 0 0 0 0 0 0 0 0
0 0 0 0 0 0 0 0 0 0 0 0 0 0 0 0 0 0 0 0 0 0 0 0 0 0 0 0 0 0 0 0 0 0 0 0 0 0 0 0 0 0 0 0
Wind_Speed
5 5 4 6 6 6 7 8 7 7 7 7 4 3 2 2 1 2 2 3 2 3 3 3 3 3 3 3 3 3 3 3 3 3 2 2 2 3 2 2 2 1 1 1
5 5 5 8 8 8 8 8 9 10 10 5 3 2 2 2 1 2 2 2 3 3 3 3 3 3 4 4 3 3 2 3 3 3 2 2 2 2 2 2 2 1 1 1
4 2 4 8 8 8 6 6 5 9 8 3 3 3 3 2 2 2 2 2 3 3 3 3 3 3 4 4 3 3 2 2 3 2 2 3 3 2 2 2 2 1 1 1
2 2 7 5 1 3 5 6 5 5 4 3 3 3 3 2 2 2 2 2 3 3 3 3 3 4 4 3 3 2 2 2 2 2 2 2 2 2 2 2 2 2 1 1
2 4 8 4 2 1 3 5 3 4 4 3 3 4 3 1 1 2 2 2 3 2 3 3 3 4 4 3 2 2 2 2 2 2 2 2 2 2 2 2 2 2 2 1
3 4 7 3 0 1 2 4 2 1 2 2 2 4 4 3 3 3 3 2 2 2 2 3 3 3 3 3 2 2 3 3 2 2 2 3 2 2 2 2 2 2 2 1
5 6 7 2 1 2 1 5 1 1 2 2 3 4 4 4 4 4 3 3 2 2 3 3 3 3 3 3 2 2 2 3 2 2 3 3 2 2 2 1 1 2 2 2
4 6 7 1 2 3 4 2 1 2 1 2 3 4 4 4 4 4 4 3 3 3 3 3 3 3 3 3 2 2 2 2 2 2 2 2 1 2 1 1 1 1 1 2
5 6 2 3 3 3 1 2 2 2 2 2 4 4 5 5 5 5 4 3 3 3 3 3 3 2 3 3 2 2 2 2 2 2 2 2 1 1 1 1 1 1 1 1
4 5 4 4 3 2 2 2 3 3 3 3 4 5 5 5 5 5 4 3 3 3 3 4 3 2 2 2 1 2 2 2 2 2 1 1 1 1 1 1 1 1 1 1
5 5 4 3 3 3 3 3 3 3 3 3 4 5 5 5 5 4 3 3 3 3 4 4 3 2 2 1 1 2 2 2 2 1 1 1 1 1 1 1 1 1 1 1
5 3 3 4 3 2 2 3 3 3 4 3 3 4 5 4 4 4 4 3 3 3 3 4 3 2 2 1 1 1 2 2 1 1 1 1 1 1 2 2 3 3 3 3
3 3 2 4 3 2 2 3 3 3 4 4 4 3 4 4 4 4 4 3 3 4 4 3 2 3 2 1 1 1 2 2 1 1 1 1 1 1 1 2 2 2 3 4
2 1 3 3 3 2 2 3 2 3 3 3 3 3 3 3 3 4 4 4 3 3 3 3 2 3 2 1 1 2 2 2 1 1 1 1 1 1 1 1 1 1 2 3
2 2 3 3 2 2 2 2 2 3 3 3 2 2 3 3 4 4 4 3 3 3 2 2 2 2 2 1 1 1 1 1 1 1 1 1 1 1 1 1 1 1 1 2
3 2 1 2 2 2 2 2 3 3 3 2 2 3 3 3 3 4 3 2 3 3 3 2 2 2 2 1 1 1 1 2 1 1 1 1 0 0 0 0 1 1 1 1
1 2 2 3 3 3 3 2 2 3 2 2 3 3 3 3 3 3 3 3 3 3 3 2 2 2 2 1 1 1 1 1 2 1 1 1 0 0 0 0 1 1 1 2
3 3 3 3 3 3 3 2 2 2 2 2 2 2 2 2 3 3 3 3 3 3 2 2 2 2 1 1 1 1 1 1 1 1 0 0 0 0 0 0 1 1 1 2
1 1 1 1 1 1 2 2 2 2 1 1 1 2 2 3 3 3 3 3 2 3 3 2 3 2 1 2 1 0 0 0 0 0 0 1 1 1 0 1 1 1 1 1
1 1 1 1 1 1 1 1 1 1 1 1 1 2 2 3 3 3 2 2 2 2 3 3 2 2 1 1 1 0 0 0 0 0 0 0 0 1 1 1 1 1 1 1
1 1 1 1 1 1 1 1 1 1 1 1 1 2 2 3 3 2 2 3 3 2 3 4 2 2 1 1 1 0 0 0 0 0 0 0 0 1 1 1 1 1 1 1
0 0 0 0 1 1 2 1 1 1 1 1 1 2 2 3 3 3 2 2 2 4 3 2 2 2 3 2 1 0 0 0 0 0 0 0 1 1 1 1 1 1 1 1
0 0 0 0 0 1 1 1 1 1 1 1 2 2 2 2 2 2 3 2 2 4 3 2 3 4 4 2 1 1 1 0 0 0 1 1 1 1 1 1 1 1 1 1
0 0 0 0 1 1 1 2 1 1 1 2 2 2 2 2 2 1 2 4 5 5 3 4 5 4 4 1 1 1 1 1 1 1 1 0 0 1 1 1 1 1 1 1
1 1 1 1 1 0 1 1 1 1 1 2 2 2 1 1 1 2 2 3 4 4 3 4 5 5 3 1 1 1 1 1 1 0 0 1 1 1 1 1 1 1 1 1
1 1 1 1 1 0 0 0 1 1 1 2 2 2 2 1 2 2 2 3 3 4 3 3 3 3 2 2 1 1 1 2 2 1 1 1 1 1 1 1 2 1 1 1
1 1 0 0 0 0 0 0 1 1 1 1 2 2 2 2 2 2 2 2 2 2 2 2 2 2 2 2 2 2 2 2 1 1 1 1 1 1 1 2 1 1 1 1
Wind_Direction
272 286 283 261 250 230 226 234 243 265 271 273 284 299 314 332 348 335 327 320 327 334 337 341 342 342 336 322 321 322 319 318 317 318 320 322 320 318 319 317 311 293 289 298
279 267 269 271 254 237 238 244 254 273 277 279 291 314 320 316 293 290 303 313 324 331 334 332 332 330 323 315 319 324 320 322 326 326 330 331 321 319 320 315 304 297 300 308
273 306 311 270 234 218 227 226 229 250 262 303 307 304 300 298 288 283 293 311 319 321 320 321 321 317 309 306 311 314 314 317 322 330 334 326 322 326 318 308 304 293 305 306
279 315 254 246 232 203 223 243 239 253 280 307 310 324 323 303 294 298 297 305 307 309 310 316 318 313 309 306 303 305 306 307 317 321 312 316 314 311 308 303 304 296 285 281
238 263 272 266 244 186 213 271 243 248 278 310 335 325 296 291 337 308 288 287 289 292 299 311 310 308 309 303 298 301 301 303 306 304 306 305 299 297 295 297 292 286 277 269
230 255 262 264 298 46 86 278 260 227 266 290 325 300 287 340 349 330 319 309 304 305 305 303 300 303 299 291 294 296 299 303 305 303 300 291 286 288 290 288 284 292 297 286
233 250 263 249 166 90 186 258 290 257 258 250 254 258 289 325 327 317 310 309 306 300 298 293 294 297 292 288 282 293 305 307 303 296 289 284 291 295 304 303 304 305 305 304
205 230 252 173 133 199 233 287 301 297 281 265 275 291 302 308 307 311 312 310 309 302 297 294 293 291 287 283 290 306 305 299 294 293 293 299 302 304 313 319 314 313 329 329
206 222 247 182 212 237 264 287 294 293 301 291 285 289 297 301 301 302 302 298 301 295 293 294 289 285 275 282 297 304 296 293 293 296 293 292 293 302 308 299 288 310 329 328
260 263 260 240 239 252 279 281 291 293 289 286 283 290 295 295 296 298 300 302 305 302 295 293 295 292 275 277 283 286 286 291 296 295 298 306 310 302 298 290 285 304 327 335
253 272 288 249 236 259 277 279 283 290 284 273 279 286 286 291 294 296 296 298 298 294 293 294 300 294 289 271 273 281 280 280 287 285 279 283 289 285 290 275 289 296 271 279
239 247 253 274 273 274 276 281 289 298 301 295 281 281 290 292 293 295 295 294 296 297 297 301 299 293 290 272 251 255 274 279 281 291 291 297 299 305 292 289 308 320 308 305
256 301 282 285 299 315 292 292 297 288 282 290 295 289 290 291 295 296 293 292 287 287 290 292 294 299 300 277 253 239 255 273 277 285 282 288 298 312 322 314 307 322 327 330
275 307 290 286 296 304 300 304 307 306 298 292 297 300 295 294 298 298 294 291 288 282 281 279 278 287 295 277 265 265 264 268 271 258 267 273 279 285 291 317 340 339 330 339
272 279 261 288 309 319 322 322 313 303 306 311 311 304 300 297 297 300 304 311 313 299 290 282 275 285 299 274 262 260 256 254 254 252 256 259 270 285 304 327 332 333 344 346
289 296 275 282 290 309 317 308 293 289 297 299 303 307 307 304 303 307 311 319 317 308 304 289 283 292 299 278 265 255 252 269 280 249 248 248 258 291 328 342 338 334 336 338
221 263 282 290 287 289 287 284 283 288 291 292 299 313 318 318 317 318 323 325 314 302 298 292 299 311 303 274 257 261 259 265 278 266 241 235 242 270 308 311 309 315 316 320
234 242 242 248 259 276 286 292 291 292 287 284 308 323 317 313 309 311 317 324 328 324 320 323 315 316 301 291 271 255 244 253 259 265 282 290 307 269 255 297 313 319 323 331
261 270 268 272 280 270 275 285 293 302 307 315 322 310 305 303 305 312 323 329 320 313 320 322 320 329 310 295 316 300 303 324 331 317 302 298 320 316 302 290 292 302 315 331
360 358 360 350 347 336 308 316 331 330 330 340 335 325 320 319 323 328 332 315 297 302 321 326 324 317 320 313 327 355 351 325 311 310 317 307 313 319 318 312 310 314 318 319
3 7 21 19 354 350 342 343 352 332 335 344 326 304 308 315 322 327 325 317 321 331 326 322 327 325 325 332 330 19 359 317 306 303 297 304 304 316 320 316 314 311 310 316
339 8 17 26 25 351 342 352 357 343 344 343 335 328 327 324 327 325 305 293 322 335 336 322 318 324 337 349 5 7 324 306 303 293 282 273 274 290 304 308 300 302 308 310
329 73 102 64 333 328 345 353 350 341 325 321 318 318 315 313 315 320 322 331 333 334 338 323 322 328 340 6 8 351 331 312 295 271 262 259 260 266 277 291 295 298 301 305
52 73 67 27 69 64 354 331 337 333 324 318 308 302 308 322 325 323 320 332 339 339 339 326 332 342 354 14 2 343 320 302 289 283 282 277 279 282 277 278 283 291 298 300
145 150 117 101 93 309 308 336 352 346 340 325 320 321 316 310 314 331 342 336 333 341 341 341 350 355 3 359 352 338 323 305 296 295 279 270 272 278 277 274 268 269 278 285
158 174 192 223 227 237 328 341 326 326 333 329 328 332 339 341 338 334 334 334 336 345 349 344 348 352 0 1 352 343 337 329 330 329 310 297 286 280 274 274 273 269 271 275
148 146 138 11 346 16 345 293 302 304 312 311 317 331 344 346 344 340 336 338 344 351 351 350 354 358 2 2 356 346 340 338 336 327 308 295 287 281 278 272 269 270 276 278